Weather Roundup
Issued by NWS

Home | Current Version | Previous Version | Text Only | Print | Product List | Glossary On
Versions: 1 2 3 4 5 6 7 8 9 10 11 12 13 14 15 16 17 18 19 20 21 22 23 24 25 26 27 28 29 30 31 32 33 34 35 36 37 38 39 40 41 42 43 44 45 46 47 48 49 50
000
NZUS93 KARX 040559
HRRWXR

CURRENT HOURLY OBSERVATIONS ACROSS
MUCH OF THE UPPER MISSISSIPPI VALLEY
NATIONAL WEATHER SERVICE LA CROSSE WI
100 AM CDT SAT JUL 04 2015


...SOUTHEAST MINNESOTA...


CITY           SKY/WX    TMP DP  RH WIND       PRES   REMARKS
ROCHESTER      CLEAR     62  55  77 SW7       29.96F
ROCHESTER/MAYO FAIR      65  56  70 CALM      29.95S
WINONA         CLEAR     61  59  94 CALM      29.94S
AUSTIN         CLEAR     61  57  88 CALM      29.96S
ALBERT LEA     CLEAR     63  61  94 CALM      29.96S
DODGE CENTER   CLEAR     61  55  82 SW3       29.96S
PRESTON        CLEAR     59  55  88 SW6       29.96F
OWATONNA       CLEAR     63  57  82 CALM      29.95S
FARIBAULT      CLEAR     61  57  88 CALM      29.95R
$$

...ELSEWHERE IN MINNESOTA...


CITY           SKY/WX    TMP DP  RH WIND       PRES   REMARKS
MINNEAPOLIS    MOCLDY    70  59  68 CALM      29.92S
INTNL FALLS    CLEAR     51  50  96 CALM      29.93S
DULUTH         CLEAR     59  55  87 N5        29.93S
RED WING       CLEAR     61  57  88 CALM      29.92S
REDWOOD FALLS  CLEAR     67  61  81 S5        29.93R
MANKATO        CLEAR     66  57  72 S6        29.94S
WORTHINGTON    CLEAR     64  57  77 SW7       29.98S
FAIRMONT       CLEAR     64  55  72 SW6       29.96R
$$

...SOUTHWEST WISCONSIN...


CITY           SKY/WX    TMP DP  RH WIND       PRES   REMARKS
LA CROSSE      CLEAR     64  60  87 SE5       29.93S
PRAIRIE DU CHI CLEAR     59  56  92 CALM      29.95S
BOSCOBEL       CLEAR     57  55  93 CALM      29.96S
LONE ROCK      NOT AVBL
PLATTEVILLE    CLEAR     62  55  79 S3        29.97S
FORT MC COY    PTCLDY    56  54  92 CALM      29.94F
CAMP DOUGLAS   PTCLDY    57  57 100 SE1       29.93S FOG
VIROQUA        FAIR      63  59  85 SW6       29.95F
WIS DELLS      CLEAR     59  56  90 S3        29.95S
$$

...ELSEWHERE IN WISCONSIN...


CITY           SKY/WX    TMP DP  RH WIND       PRES   REMARKS
MILWAUKEE      PTCLDY    62  52  69 SW7       29.94F
MADISON        CLEAR     59  54  83 CALM      29.94F
GREEN BAY      MOCLDY    63  58  83 CALM      29.91S
EAU CLAIRE     MOCLDY    64  57  78 SW6       29.91S
BLACK RVR FLS  FAIR      58  58 100 CALM      29.93S
MEDFORD        CLEAR     58  57  94 CALM      29.93S
WAUSAU         MOCLDY    64  58  80 W6        29.92R
WIS RAPIDS     PTCLDY    58  55  90 CALM      29.94S
MARSHFIELD     PTCLDY    61  55  81 SW3       29.93S
RICE LAKE      PTCLDY    65  62  92 CALM      29.93S FOG
$$

...NORTHEAST IOWA...


CITY           SKY/WX    TMP DP  RH WIND       PRES   REMARKS
DECORAH          N/A    N/A N/A N/A MISG        N/A
MASON CITY     CLEAR     62  53  72 SW5       29.98S
CHARLES CITY   CLEAR     61  61 100 CALM      29.98R
OELWEIN          N/A     61  57  88 S3        29.98S
$$

...ELSEWHERE IN IOWA...


CITY           SKY/WX    TMP DP  RH WIND       PRES   REMARKS
DES MOINES     CLEAR     67  57  70 CALM      29.98S
IOWA CITY      CLEAR     61  57  87 CALM      29.99R
FORT DODGE     CLEAR     57  52  82 CALM      29.99S
$$

...NORTHERN ILLINOIS...


CITY           SKY/WX    TMP DP  RH WIND       PRES   REMARKS
CHICAGO-OHARE  PTCLDY    62  56  80 CALM      29.96R
CHICAGO-MIDWAY PTCLDY    64  55  72 W3        29.95S
MOLINE         CLEAR     60  58  92 CALM      29.97R FOG
ROCKFORD       CLEAR     61  57  87 S3        29.97S
PEORIA         CLEAR     64  59  83 CALM      29.97R HAZE
$$

NOTE: "FAIR" INDICATES FEW OR NO CLOUDS BELOW 12,000 FEET WITH NO
SIGNIFICANT WEATHER AND/OR OBSTRUCTIONS TO VISIBILITY. WIND
SPEEDS ARE IN MILES-PER-HOUR.



USA.gov is the U.S. government's official web portal to all federal, state and local government web resources and services.